Falls City, NE

11:50 AM CDT on September 26, 2016 (GMT -0500)
Brenner

Weather History for KFNB - July, 2013

Change the Weather History Date:

Saturday, July 27, 2013

  Actual Average Record
Temperature  
Mean Temperature 64 °F -  
Max Temperature 75 °F 89 °F 107 °F (1956)
Min Temperature 54 °F 64 °F 53 °F (2004)
Growing Degree Days 14 (Base 50)    
Moisture  
Dew Point 51 °F    
Average Humidity 65    
Maximum Humidity 97    
Minimum Humidity 37    
Precipitation  
Precipitation 0.00 in - - ()
Sea Level Pressure  
Sea Level Pressure 30.06 in    
Wind  
Wind Speed 4 mph (NNW)    
Max Wind Speed 10 mph    
Max Gust Speed 18 mph    
Visibility 10 miles    
Events      
Averages and records for this station are not official NWS values.
T = Trace of Precipitation, MM = Missing Value Source: NWS Daily Summary

Daily Weather History Graph

Daily Weather History Graph

Search for Another Location

Airport or City:

Trip Planner

Search our weather history database for the weather conditions in past years. The results will help you decide how hot, cold, wet, or windy it might be!

Date:

Astronomy

Jul. 27, 2013 Rise Set
Actual Time 6:16 AM CDT 8:40 PM CDT
Civil Twilight 5:45 AM CDT 9:11 PM CDT
Nautical Twilight 5:07 AM CDT 9:49 PM CDT
Astronomical Twilight 4:24 AM CDT 10:31 PM CDT
Moon 11:28 PM CDT (7/27) 11:57 AM CDT (7/27)
Length of Visible Light 15h 26m
Length of Day
14h 24m
Waning Gibbous, 70% of the Moon is Illuminated
Jul 27
Waning Gibbous
Jul 29
Last Quarter
Aug 6
New
Aug 14
First Quarter
Aug 20
Full

Hourly Weather History & Observations

Time (CDT) Temp. Dew Point Humidity Pressure Visibility Wind Dir Wind Speed Gust Speed Precip Events Conditions
12:53 AM 57.9 °F 54.0 °F 87% 30.09 in 10.0 mi NNW 3.5 mph - N/A   Clear
1:53 AM 57.0 °F 54.0 °F 89% 30.09 in 10.0 mi NW 3.5 mph - N/A   Clear
2:53 AM 55.0 °F 53.1 °F 93% 30.08 in 10.0 mi NW 4.6 mph - N/A   Clear
3:53 AM 54.0 °F 53.1 °F 97% 30.07 in 10.0 mi WNW 4.6 mph - N/A   Clear
4:53 AM 54.0 °F 53.1 °F 97% 30.07 in 10.0 mi Calm Calm - N/A   Mostly Cloudy
5:53 AM 55.0 °F 53.1 °F 93% 30.08 in 10.0 mi NNW 5.8 mph - N/A   Mostly Cloudy
6:53 AM 55.9 °F 53.1 °F 90% 30.10 in 10.0 mi Calm Calm - N/A   Mostly Cloudy
7:53 AM 59.0 °F 55.0 °F 87% 30.11 in 10.0 mi NW 3.5 mph - N/A   Scattered Clouds
8:53 AM 64.0 °F 55.9 °F 75% 30.12 in 10.0 mi NW 3.5 mph - N/A   Clear
9:53 AM 66.9 °F 53.1 °F 61% 30.11 in 10.0 mi NNW 9.2 mph - N/A   Clear
10:53 AM 70.0 °F 55.0 °F 59% 30.10 in 10.0 mi North 6.9 mph - N/A   Clear
11:53 AM 70.0 °F 50.0 °F 49% 30.09 in 10.0 mi North 5.8 mph - N/A   Scattered Clouds
12:53 PM 73.0 °F 46.9 °F 39% 30.07 in 10.0 mi NW 10.4 mph - N/A   Clear
1:53 PM 73.0 °F 46.0 °F 38% 30.06 in 10.0 mi North 6.9 mph 18.4 mph N/A   Clear
2:53 PM 75.0 °F 46.9 °F 37% 30.05 in 10.0 mi North 10.4 mph 16.1 mph N/A   Clear
3:53 PM 75.0 °F 46.9 °F 37% 30.03 in 10.0 mi North 8.1 mph 17.3 mph N/A   Clear
4:53 PM 75.9 °F 48.0 °F 37% 30.02 in 10.0 mi NNW 5.8 mph - N/A   Clear
5:53 PM 73.9 °F 48.0 °F 40% 30.01 in 10.0 mi NNW 5.8 mph - N/A   Clear
6:53 PM 73.9 °F 50.0 °F 43% 30.00 in 10.0 mi NNE 4.6 mph - N/A   Clear
7:53 PM 71.1 °F 50.0 °F 47% 30.01 in 10.0 mi North 3.5 mph - N/A   Clear
8:53 PM 66.0 °F 51.1 °F 59% 30.01 in 10.0 mi North 4.6 mph - N/A   Clear
9:53 PM 62.1 °F 51.1 °F 67% 30.01 in 10.0 mi North 3.5 mph - N/A   Clear
10:53 PM 59.0 °F 50.0 °F 72% 30.02 in 10.0 mi Calm Calm - N/A   Clear
11:53 PM 57.9 °F 50.0 °F 75% 30.03 in 10.0 mi Calm Calm - N/A   Clear